Time,TemperatureF,DewpointF,PressureIn,WindDirection,WindDirectionDegrees,WindSpeedMPH,WindSpeedGustMPH,Humidity,HourlyPrecipIn,Conditions,Clouds,dailyrainin,SoftwareType,DateUTC
2013-07-10 00:05:00,59.6,53.0,30.16,SSW,193,9.0,10.0,80,0.00,,,0.00,weatherlink.com 1.10,2013-07-10 07:05:00,
2013-07-10 00:20:00,59.2,53.0,30.16,South,190,7.0,10.0,81,0.00,,,0.00,weatherlink.com 1.10,2013-07-10 07:20:00,
2013-07-10 00:35:00,58.6,53.0,30.16,SSE,167,12.0,12.0,82,0.00,,,0.00,weatherlink.com 1.10,2013-07-10 07:35:00,
2013-07-10 00:50:00,58.8,53.0,30.16,SSE,159,11.0,14.0,81,0.00,,,0.00,weatherlink.com 1.10,2013-07-10 07:50:00,
2013-07-10 01:05:00,58.7,53.0,30.16,South,169,9.0,14.0,82,0.00,,,0.00,weatherlink.com 1.10,2013-07-10 08:05:00,
2013-07-10 01:20:00,57.4,53.0,30.16,WSW,242,3.0,3.0,86,0.00,,,0.00,weatherlink.com 1.10,2013-07-10 08:20:00,
2013-07-10 01:35:00,57.6,54.0,30.16,South,188,3.0,7.0,86,0.00,,,0.00,weatherlink.com 1.10,2013-07-10 08:35:00,
2013-07-10 01:50:00,58.2,54.0,30.17,SW,226,3.0,4.0,86,0.00,,,0.00,weatherlink.com 1.10,2013-07-10 08:50:00,
2013-07-10 02:05:00,57.3,54.0,30.17,SSE,157,4.0,5.0,88,0.00,,,0.00,weatherlink.com 1.10,2013-07-10 09:05:00,
2013-07-10 02:20:00,57.0,53.0,30.17,SSE,149,8.0,10.0,87,0.00,,,0.00,weatherlink.com 1.10,2013-07-10 09:20:00,
2013-07-10 02:35:00,56.6,54.0,30.17,SSE,157,6.0,9.0,89,0.00,,,0.00,weatherlink.com 1.10,2013-07-10 09:35:00,
2013-07-10 02:50:00,56.5,53.0,30.17,SSE,152,8.0,10.0,89,0.00,,,0.00,weatherlink.com 1.10,2013-07-10 09:50:00,
2013-07-10 03:05:00,56.3,54.0,30.16,SSE,151,8.0,10.0,90,0.00,,,0.00,weatherlink.com 1.10,2013-07-10 10:05:00,
2013-07-10 03:20:00,56.5,54.0,30.16,SSE,153,10.0,12.0,90,0.00,,,0.00,weatherlink.com 1.10,2013-07-10 10:20:00,
2013-07-10 03:35:00,56.3,54.0,30.16,SSE,166,4.0,9.0,90,0.00,,,0.00,weatherlink.com 1.10,2013-07-10 10:35:00,
2013-07-10 03:50:00,56.4,54.0,30.16,SSW,195,3.0,4.0,91,0.00,,,0.00,weatherlink.com 1.10,2013-07-10 10:50:00,
2013-07-10 04:05:00,56.0,53.0,30.17,South,180,6.0,7.0,90,0.00,,,0.00,weatherlink.com 1.10,2013-07-10 11:05:00,
2013-07-10 04:20:00,55.8,54.0,30.17,SSE,160,6.0,9.0,92,0.00,,,0.00,weatherlink.com 1.10,2013-07-10 11:20:00,
2013-07-10 04:35:00,56.3,54.0,30.17,South,191,3.0,4.0,92,0.00,,,0.00,weatherlink.com 1.10,2013-07-10 11:35:00,
2013-07-10 04:50:00,56.1,54.0,30.17,SSE,162,2.0,4.0,92,0.00,,,0.00,weatherlink.com 1.10,2013-07-10 11:50:00,
2013-07-10 05:05:00,56.6,54.0,30.17,SSE,151,3.0,4.0,91,0.00,,,0.00,weatherlink.com 1.10,2013-07-10 12:05:00,
2013-07-10 05:20:00,56.8,54.0,30.17,ESE,113,1.0,2.0,90,0.00,,,0.00,weatherlink.com 1.10,2013-07-10 12:20:00,
2013-07-10 05:35:00,56.8,54.0,30.17,North,11,0.0,0.0,90,0.00,,,0.00,weatherlink.com 1.10,2013-07-10 12:35:00,
2013-07-10 05:50:00,57.5,54.0,30.16,WNW,284,0.0,0.0,89,0.00,,,0.00,weatherlink.com 1.10,2013-07-10 12:50:00,
2013-07-10 06:05:00,57.2,54.0,30.17,WNW,291,3.0,5.0,89,0.00,,,0.00,weatherlink.com 1.10,2013-07-10 13:05:00,
2013-07-10 06:20:00,56.1,54.0,30.18,SSE,162,8.0,10.0,91,0.00,,,0.00,weatherlink.com 1.10,2013-07-10 13:20:00,
2013-07-10 06:35:00,55.6,53.0,30.18,SSE,160,10.0,14.0,91,0.00,,,0.00,weatherlink.com 1.10,2013-07-10 13:35:00,
2013-07-10 06:50:00,56.1,54.0,30.18,SSE,165,6.0,13.0,91,0.00,,,0.00,weatherlink.com 1.10,2013-07-10 13:50:00,
2013-07-10 07:05:00,57.1,54.0,30.18,SE,129,2.0,10.0,90,0.00,,,0.00,weatherlink.com 1.10,2013-07-10 14:05:00,
2013-07-10 07:20:00,59.7,56.0,30.18,ESE,122,0.0,1.0,88,0.00,,,0.00,weatherlink.com 1.10,2013-07-10 14:20:00,
2013-07-10 07:35:00,61.7,57.0,30.18,NE,41,0.0,3.0,84,0.00,,,0.00,weatherlink.com 1.10,2013-07-10 14:35:00,
2013-07-10 07:51:00,63.2,57.0,30.18,West,271,0.0,2.0,80,0.00,,,0.00,weatherlink.com 1.10,2013-07-10 14:51:00,
2013-07-10 08:06:00,58.9,54.0,30.19,SW,216,5.0,8.0,84,0.00,,,0.00,weatherlink.com 1.10,2013-07-10 15:06:00,
2013-07-10 08:21:00,57.8,54.0,30.20,SSW,198,6.0,8.0,86,0.00,,,0.00,weatherlink.com 1.10,2013-07-10 15:21:00,
2013-07-10 08:36:00,57.6,54.0,30.19,SSE,153,11.0,12.0,86,0.00,,,0.00,weatherlink.com 1.10,2013-07-10 15:36:00,
2013-07-10 08:51:00,58.3,54.0,30.19,SSW,200,3.0,11.0,86,0.00,,,0.00,weatherlink.com 1.10,2013-07-10 15:51:00,
2013-07-10 09:06:00,58.7,54.0,30.19,SSW,201,5.0,6.0,84,0.00,,,0.00,weatherlink.com 1.10,2013-07-10 16:06:00,
2013-07-10 09:21:00,58.8,54.0,30.20,South,171,6.0,10.0,85,0.00,,,0.00,weatherlink.com 1.10,2013-07-10 16:21:00,
2013-07-10 09:36:00,58.5,54.0,30.20,South,183,5.0,6.0,85,0.00,,,0.00,weatherlink.com 1.10,2013-07-10 16:36:00,
2013-07-10 09:51:00,59.1,54.0,30.20,SSE,158,4.0,6.0,84,0.00,,,0.00,weatherlink.com 1.10,2013-07-10 16:51:00,
2013-07-10 10:07:00,59.8,55.0,30.19,South,179,5.0,6.0,83,0.00,,,0.00,weatherlink.com 1.10,2013-07-10 17:07:00,
2013-07-10 10:21:00,59.5,55.0,30.19,South,179,3.0,6.0,84,0.00,,,0.00,weatherlink.com 1.10,2013-07-10 17:21:00,
2013-07-10 10:36:00,60.5,56.0,30.19,South,169,1.0,6.0,84,0.00,,,0.00,weatherlink.com 1.10,2013-07-10 17:36:00,
2013-07-10 10:51:00,61.0,56.0,30.19,South,191,4.0,5.0,82,0.00,,,0.00,weatherlink.com 1.10,2013-07-10 17:51:00,
2013-07-10 11:06:00,60.5,56.0,30.19,SSW,211,2.0,6.0,84,0.00,,,0.00,weatherlink.com 1.10,2013-07-10 18:06:00,
2013-07-10 11:21:00,61.1,56.0,30.19,West,261,4.0,7.0,83,0.00,,,0.00,weatherlink.com 1.10,2013-07-10 18:21:00,
2013-07-10 11:36:00,60.9,55.0,30.19,WSW,250,5.0,6.0,82,0.00,,,0.00,weatherlink.com 1.10,2013-07-10 18:36:00,
2013-07-10 11:51:00,63.4,57.0,30.19,WNW,291,4.0,8.0,80,0.00,,,0.00,weatherlink.com 1.10,2013-07-10 18:51:00,
2013-07-10 12:06:00,63.8,58.0,30.18,NE,36,2.0,5.0,81,0.00,,,0.00,weatherlink.com 1.10,2013-07-10 19:06:00,
2013-07-10 12:21:00,64.9,57.0,30.18,NNW,333,3.0,7.0,75,0.00,,,0.00,weatherlink.com 1.10,2013-07-10 19:21:00,
2013-07-10 12:36:00,65.4,57.0,30.18,SW,235,3.0,4.0,74,0.00,,,0.00,weatherlink.com 1.10,2013-07-10 19:36:00,
2013-07-10 12:51:00,62.6,57.0,30.18,SW,232,0.0,4.0,81,0.00,,,0.00,weatherlink.com 1.10,2013-07-10 19:51:00,
2013-07-10 13:06:00,62.6,56.0,30.18,WSW,252,3.0,5.0,80,0.00,,,0.00,weatherlink.com 1.10,2013-07-10 20:06:00,
2013-07-10 13:21:00,62.0,55.0,30.17,SW,235,4.0,4.0,79,0.00,,,0.00,weatherlink.com 1.10,2013-07-10 20:21:00,
2013-07-10 13:36:00,62.8,56.0,30.17,WSW,242,1.0,4.0,79,0.00,,,0.00,weatherlink.com 1.10,2013-07-10 20:36:00,
2013-07-10 13:51:00,63.2,56.0,30.17,SW,224,2.0,4.0,77,0.00,,,0.00,weatherlink.com 1.10,2013-07-10 20:51:00,
2013-07-10 14:06:00,65.2,57.0,30.17,SSE,155,1.0,3.0,76,0.00,,,0.00,weatherlink.com 1.10,2013-07-10 21:06:00,
2013-07-10 14:21:00,66.3,56.0,30.16,SE,143,3.0,5.0,70,0.00,,,0.00,weatherlink.com 1.10,2013-07-10 21:21:00,
2013-07-10 14:36:00,65.4,55.0,30.16,SSE,148,14.0,15.0,70,0.00,,,0.00,weatherlink.com 1.10,2013-07-10 21:36:00,
2013-07-10 14:51:00,63.8,55.0,30.16,ESE,120,15.0,16.0,72,0.00,,,0.00,weatherlink.com 1.10,2013-07-10 21:51:00,
2013-07-10 15:06:00,64.3,55.0,30.15,ESE,120,11.0,13.0,72,0.00,,,0.00,weatherlink.com 1.10,2013-07-10 22:06:00,
2013-07-10 15:22:00,64.3,54.0,30.15,SE,143,12.0,12.0,70,0.00,,,0.00,weatherlink.com 1.10,2013-07-10 22:22:00,
2013-07-10 15:37:00,64.3,53.0,30.15,SE,143,10.0,15.0,67,0.00,,,0.00,weatherlink.com 1.10,2013-07-10 22:37:00,
2013-07-10 15:52:00,63.7,52.0,30.15,SE,146,15.0,18.0,67,0.00,,,0.00,weatherlink.com 1.10,2013-07-10 22:52:00,
2013-07-10 16:07:00,63.3,53.0,30.14,SE,143,13.0,17.0,69,0.00,,,0.00,weatherlink.com 1.10,2013-07-10 23:07:00,
2013-07-10 16:22:00,63.4,53.0,30.13,ESE,122,14.0,17.0,69,0.00,,,0.00,weatherlink.com 1.10,2013-07-10 23:22:00,
2013-07-10 16:37:00,63.5,52.0,30.12,SE,132,12.0,16.0,67,0.00,,,0.00,weatherlink.com 1.10,2013-07-10 23:37:00,
2013-07-10 16:52:00,63.4,52.0,30.11,SE,132,10.0,15.0,67,0.00,,,0.00,weatherlink.com 1.10,2013-07-10 23:52:00,
2013-07-10 17:07:00,63.8,53.0,30.11,SE,138,13.0,13.0,67,0.00,,,0.00,weatherlink.com 1.10,2013-07-11 00:07:00,
2013-07-10 17:22:00,63.6,53.0,30.10,SE,138,7.0,10.0,68,0.00,,,0.00,weatherlink.com 1.10,2013-07-11 00:22:00,
2013-07-10 17:37:00,64.4,52.0,30.09,SE,143,9.0,11.0,65,0.00,,,0.00,weatherlink.com 1.10,2013-07-11 00:37:00,
2013-07-10 17:52:00,64.9,52.0,30.09,SE,143,10.0,12.0,63,0.00,,,0.00,weatherlink.com 1.10,2013-07-11 00:52:00,
2013-07-10 18:07:00,64.9,52.0,30.09,SE,134,7.0,9.0,63,0.00,,,0.00,weatherlink.com 1.10,2013-07-11 01:07:00,
2013-07-10 18:22:00,66.2,52.0,30.08,SSE,151,7.0,8.0,61,0.00,,,0.00,weatherlink.com 1.10,2013-07-11 01:22:00,
2013-07-10 18:37:00,66.6,52.0,30.08,SE,136,7.0,9.0,60,0.00,,,0.00,weatherlink.com 1.10,2013-07-11 01:37:00,
2013-07-10 18:52:00,66.9,51.0,30.07,SE,146,9.0,10.0,58,0.00,,,0.00,weatherlink.com 1.10,2013-07-11 01:52:00,
2013-07-10 19:07:00,66.8,51.0,30.07,SSE,153,10.0,13.0,57,0.00,,,0.00,weatherlink.com 1.10,2013-07-11 02:07:00,
2013-07-10 19:22:00,66.5,51.0,30.07,SSE,153,12.0,14.0,57,0.00,,,0.00,weatherlink.com 1.10,2013-07-11 02:22:00,
2013-07-10 19:37:00,66.6,50.0,30.07,SSE,149,13.0,15.0,55,0.00,,,0.00,weatherlink.com 1.10,2013-07-11 02:37:00,
2013-07-10 19:52:00,65.4,50.0,30.07,SSE,151,12.0,15.0,58,0.00,,,0.00,weatherlink.com 1.10,2013-07-11 02:52:00,
2013-07-10 20:07:00,64.6,50.0,30.07,SE,146,14.0,15.0,60,0.00,,,0.00,weatherlink.com 1.10,2013-07-11 03:07:00,
2013-07-10 20:22:00,63.0,51.0,30.07,SSE,150,11.0,18.0,65,0.00,,,0.00,weatherlink.com 1.10,2013-07-11 03:22:00,
2013-07-10 20:37:00,61.0,52.0,30.07,SSE,155,13.0,15.0,71,0.00,,,0.00,weatherlink.com 1.10,2013-07-11 03:37:00,
2013-07-10 20:52:00,60.4,51.0,30.08,South,173,12.0,15.0,71,0.00,,,0.00,weatherlink.com 1.10,2013-07-11 03:52:00,
2013-07-10 21:07:00,60.4,49.0,30.08,SSW,203,16.0,17.0,67,0.00,,,0.00,weatherlink.com 1.10,2013-07-11 04:07:00,
2013-07-10 21:22:00,60.0,49.0,30.08,SSW,197,10.0,20.0,68,0.00,,,0.00,weatherlink.com 1.10,2013-07-11 04:22:00,
2013-07-10 21:37:00,59.2,49.0,30.09,SSW,204,13.0,17.0,68,0.00,,,0.00,weatherlink.com 1.10,2013-07-11 04:37:00,
2013-07-10 21:52:00,58.5,49.0,30.09,South,191,12.0,16.0,71,0.00,,,0.00,weatherlink.com 1.10,2013-07-11 04:52:00,
2013-07-10 22:07:00,58.3,49.0,30.09,South,184,15.0,19.0,70,0.00,,,0.00,weatherlink.com 1.10,2013-07-11 05:07:00,
2013-07-10 22:22:00,57.6,49.0,30.10,South,191,13.0,19.0,72,0.00,,,0.00,weatherlink.com 1.10,2013-07-11 05:22:00,
2013-07-10 22:37:00,57.2,48.0,30.10,SSW,195,17.0,19.0,72,0.00,,,0.00,weatherlink.com 1.10,2013-07-11 05:37:00,
2013-07-10 22:52:00,56.9,48.0,30.10,SSE,164,13.0,18.0,73,0.00,,,0.00,weatherlink.com 1.10,2013-07-11 05:52:00,
2013-07-10 23:07:00,56.5,49.0,30.11,South,176,10.0,18.0,75,0.00,,,0.00,weatherlink.com 1.10,2013-07-11 06:07:00,
2013-07-10 23:22:00,56.3,49.0,30.11,SSE,157,10.0,15.0,76,0.00,,,0.00,weatherlink.com 1.10,2013-07-11 06:22:00,
2013-07-10 23:37:00,55.9,49.0,30.11,South,176,12.0,20.0,78,0.00,,,0.00,weatherlink.com 1.10,2013-07-11 06:37:00,
2013-07-10 23:52:00,55.6,49.0,30.12,SSW,200,6.0,14.0,79,0.00,,,0.00,weatherlink.com 1.10,2013-07-11 06:52:00,